Simultaneous Nadir Overpasses (SNOs) Predictions

Prediction of SNOs between AQUA and METOP-B Satellite Orbit:

Table of predicted SNOs for the next 14.0 days since TLE Epoch: 10/30/2021
Index Date (AQUA) Time (AQUA) Lat,Lon (AQUA) SZA (AQUA ) Date (METOP-B) Time (METOP-B) Lat,Lon (METOP-B) SZA (METOP-B ) Distance(km) Time Diff (sec)
1 10/30/2021 06:57:57 -73.72,-110.04 92.49 10/30/2021 06:56:59 -73.74,-110.05 92.47 2.44 58
2 10/30/2021 07:47:26 73.79, 57.44 87.59 10/30/2021 07:47:37 73.81, 57.46 87.62 2.77 11
3 10/30/2021 08:37:01 -74.28,-136.04 91.90 10/30/2021 08:38:09 -74.31,-133.99 91.88 61.82 68
4 11/02/2021 02:32:14 -73.75, -43.67 91.56 11/02/2021 02:31:21 -73.73, -43.68 91.58 2.00 53
5 11/02/2021 03:21:43 73.82, 123.81 88.53 11/02/2021 03:21:59 73.80, 123.82 88.51 2.13 16
6 11/02/2021 04:11:22 -74.51, -70.16 90.75 11/02/2021 04:12:27 -74.49, -67.11 90.79 90.51 65
7 11/04/2021 22:06:31 -73.74, 22.78 90.70 11/04/2021 22:05:43 -73.76, 22.80 90.67 2.25 48
8 11/04/2021 22:56:00 73.81,-169.75 89.39 11/04/2021 22:56:21 73.83,-169.70 89.41 2.28 21
9 11/07/2021 17:40:48 -73.76, 89.18 89.84 11/07/2021 17:40:06 -73.74, 89.16 89.86 2.22 42
10 11/07/2021 18:30:17 73.83,-103.35 90.25 11/07/2021 18:30:44 73.81,-103.34 90.23 2.90 27
11 11/10/2021 13:15:03 -73.74, 155.65 89.05 11/10/2021 13:14:27 -73.76, 155.62 89.03 2.37 36
12 11/10/2021 14:04:32 73.82, -36.89 91.04 11/10/2021 14:05:05 73.83, -36.88 91.05 1.15 33



Historial Predications of SNOs between AQUA and METOP-B
